Regional Weather Roundup
Issued by NWS Austin/San Antonio, TX

Home | Current Version | Previous Version | Text Only | Print | Product List | Glossary On
Versions: 1 2 3 4 5 6 7 8 9 10 11 12 13 14 15 16 17 18 19 20 21 22 23 24 25 26 27 28 29 30 31 32 33 34 35 36 37 38 39 40 41 42 43 44 45 46 47 48 49 50
000
ASUS44 KEWX 170310
RWREWX
SOUTH TEXAS REGIONAL WEATHER ROUNDUP
NATIONAL WEATHER SERVICE AUSTIN/SAN ANTONIO TX
1000 PM CDT WED AUG 16 2017

NOTE: "FAIR" INDICATED FEW OR NO CLOUDS BELOW 12,000 FEET WITH NO
SIGNIFICANT WEATHER AND/OR OBSTRUCTIONS TO VISIBILITY.

* - THESE STATIONS ARE NOT NWS OR FAA STATIONS...AND ARE NOT SUBJECT
    TO NWS AND FAA QUALITY CONTROL.

TXZ171-172-183>190-170400-
TEXAS HILL COUNTRY AND EDWARDS PLATEAU

CITY           SKY/WX    TMP DP  RH WIND       PRES   REMARKS
JUNCTION       CLOUDY    80  74  81 CALM      29.94F
*LLANO         CLEAR     82  72  69 CALM      29.95S
BURNET         CLEAR     87  69  54 S6        29.96R HX  91
*HORSESHOE BAY CLEAR     86  69  56 S8        29.93S HX  90
*KERRVILLE     CLEAR     83  73  72 SE10      29.98R
*FREDERICKSBRG CLEAR     83  67  58 S6        29.97S
*ROCKSPRINGS   NOT AVBL
*BOERNE STAGE  CLEAR    N/A N/A N/A S10G20    29.99R
*CASTROVILLE   CLEAR     87  71  58 SE16G22   29.95R HX  92
HONDO          CLEAR     89  73  59 SE18      29.93R HX  97
*UVALDE        CLEAR     88  66  48 E9        29.91R HX  91
DEL RIO        CLOUDY    84  70  62 CALM      29.87S
LAUGHLIN AFB   MOCLDY    82  72  70 CALM      29.88R
CARRIZO SPRGS  CLEAR     91  64  40 SE9G18    29.86R HX  93
*EAGLE PASS    NOT AVBL
$$

TXZ173-191>194-202-209-217>225-228-170400-
CENTRAL AND SOUTH CENTRAL TEXAS

CITY           SKY/WX    TMP DP  RH WIND       PRES   REMARKS
GEORGETOWN     CLEAR     88  71  57 S15G23    29.94R HX  94
AUSTIN/BERGSTM PTCLDY    88  72  58 S16G23    29.93R HX  94
AUSTIN/MABRY   CLEAR     88  71  57 S8G24     29.95R HX  94
*AUSTIN/EXEC   CLEAR     86  70  58 S12       29.94R HX  90
*LAGO VISTA    CLEAR     87  70  57 S10G18    29.96S HX  92
SAN MARCOS     NOT AVBL
NEW BRAUNFELS  CLEAR     86  72  62 S17       29.94R HX  92
RANDOLPH AFB   CLEAR     84  74  72 SE12      29.95R HX  92
PT SAN ANTONIO CLEAR     87  73  64 SE20      29.92R HX  94
SAN ANTONIO    PTCLDY    86  73  65 SE18      29.95R HX  93
STINSON FIELD  CLEAR     87  73  62 SE12      29.92R HX  94
*LA GRANGE     CLEAR     85  77  75 S8        29.94R HX  96
*GIDDINGS      CLEAR     85  73  67 S7        29.96R HX  91
*GONZALES      CLEAR     85  77  76 S10       29.95R HX  95
$$

TXZ163>164-176>182-195>201-210>213-226-227-235-170400-
SOUTHEAST TEXAS

CITY           SKY/WX    TMP DP  RH WIND       PRES   REMARKS
COLLEGE STN    CLEAR     86  73  65 S12       29.94R HX  93
*BRYAN         CLEAR     86  72  64 S15G22    29.95S HX  92
*CALDWELL      NOT AVBL
*CROCKETT      CLEAR     84  77  79 S8        29.97R HX  94
*BRENHAM       CLEAR     86  75  68 SE13      29.97R HX  95
HUNTSVILLE     CLEAR     86  73  65 S5        29.96R HX  93
CONROE         PTCLDY    84  75  74 S12       29.97R HX  92
HOUSTON BUSH   PTCLDY    86  76  71 S13       29.97R HX  96
HOUSTON HOBBY  MOCLDY    86  77  74 S6        29.97R HX  97
*HOUSTON SW AP PTCLDY    82  78  88 S5        29.99R HX  90
PEARLAND       PTCLDY    87  77  72 S5        29.99R HX  99
HOUSTON HOOKS  PTCLDY    86  76  71 S12G21    29.97R HX  96
ELLINGTON FLD  MOCLDY    86  75  70 S7        30.00R HX  95
SUGAR LAND     MOCLDY    84  78  82 S9        29.98R HX  95
*HOUSTON EXEC  PTCLDY    82  77  83 S9        29.99R HX  91
*CLEVELAND MUN PTCLDY    82  77  86 S6        29.98R
*WHARTON       PTCLDY    81  75  84 SE3       29.98R
*COLUMBUS      FAIR      83  76  80 S7        29.98R HX  91
*EAGLE LAKE    CLEAR     83  79  87 S5        29.97R HX  94
$$

TXZ214>216-236>238-170400-
THE UPPER TEXAS COAST

CITY           SKY/WX    TMP DP  RH WIND       PRES   REMARKS
*ORANGE        CLOUDY    83  80  89 S6        30.01S HX  95
PORT ARTHUR    CLOUDY    82  78  88 S7        29.99R HX  91
GALVESTON      MOCLDY    86  80  82 S20G25    29.99R HX 101
ANGLETON       MOCLDY    84  81  90 S10       29.98R HX  99
*BAY CITY      PTCLDY    82  80  91 S6        29.98R HX  93
PALACIOS       CLEAR     83  78  85 S14       29.97R HX  93
$$

TXZ229>234-239>247-170400-
TEXAS COASTAL BEND AND RIO GRANDE PLAINS

CITY           SKY/WX    TMP DP  RH WIND       PRES   REMARKS
VICTORIA       MOCLDY    84  77  79 S8        29.97R HX  94
*BEEVILLE      CLEAR     84  78  81 SE9       29.95R HX  95
ROCKPORT       CLEAR     86  79  79 SE14G21   29.95R HX  99
*PORT ARANSAS  MOCLDY    84  80  88 SE10      29.96R HX  96
*PORT LAVACA   CLEAR     82  77  83 S9        29.96R HX  91
*INGLESIDE     PTCLDY    86  81  84 MISG      29.95R HX 101
CORPUS CHRISTI PTCLDY    84  79  85 SE13G22   29.94R HX  96
CORPUS NAS     PTCLDY    86  81  85 SE16      29.95R HX 102
*ROBSTOWN      CLEAR     86  77  74 SE16G23   29.94R HX  97
ALICE          CLEAR     84  76  76 SE15      29.92R HX  93
KINGSVILLE NAS PTCLDY    85  80  85 SE18      29.94R HX  99
COTULLA        CLEAR     90  74  59 SE20      29.89R HX  99
*FAITH RANCH   CLEAR     91  66  43 E5        29.88R HX  94
LAREDO         CLEAR     93  71  48 SE18      29.89R HX 100
$$

TXZ248>255-170400-
DEEP SOUTH TEXAS

CITY           SKY/WX    TMP DP  RH WIND       PRES   REMARKS
BROWNSVILLE    MOCLDY    84  80  88 SE15      29.95R HX  97
PORT ISABEL    CLEAR     85  80  85 SE14      29.95R HX  99
*SOUTH PADRE   NOT AVBL
HARLINGEN      CLEAR     85  79  82 SE17      29.93R HX  98
*HEBBRONVILLE  CLEAR     87  69  55 SE15G21   29.93R HX  91
MCALLEN        CLEAR     87  75  67 SE17      29.93R HX  96
*WESLACO       CLEAR     85  76  74 S10G22    29.93R HX  95
FALFURRIAS     CLEAR     86  77  74 SE12      29.93R HX  97
EDINBURG       CLEAR     88  73  62 SE14G21   29.94R HX  96
*ZAPATA        CLEAR     90  72  54 SE12G25   29.88R HX  97
$$

TXZ213>215-236>238-242>244-246-247-251-254-255-170400-
CMAN STATIONS

STATION/POSITION TIME  TEMP    WIND        PRES    WAVE
                       AIR SEA DIR/SP/G            HT/PER
                 (UTC) (F)     (DEG/KT/KT) (MB)    (FT/S)
SABINE PASS      0248   86 89  170/ 10/ 15 1017.1
SEA RIM ST PARK  0200   86     170/ 11/ 13 1016.1
NORTH JETTY/GLS  0248          160/ 18/ 20   N/A
EAGLE POINT      0248   86 88  180/ 16/ 18 1015.2
MORGANS POINT    0248   87 87  180/  8/ 13 1015.1
MISSION/ARANSAS  0200          150/ 18     1014.0
PORT O`CONNOR    0248   85     160/ 18/ 20 1014.1
PORT ARANSAS     0200   84 87  140/ 12/ 13 1013.6
MALAQUITE BEACH  0248   84 87  130/ 13/ 15 1013.6
BAFFIN BAY       0248   84 88              1014.2
PORT ISABEL      0248   84 84              1014.3
$$




USA.gov is the U.S. government's official web portal to all federal, state and local government web resources and services.